Вернуться в каталог

SL-3 R/B

АктивенPO
NORAD 11289·ROCKET BODY·🇷🇺 Russia

Запущен Mar 1, 1979 с Plesetsk Cosmodrome

Loading…

Ближайшие Пролёты (ближайшие 24 часа)

TLE

СвежийSource: Space-Track

Эпоха: Sep 14, 2026, 00:59 UTC

1 11289U 79021B   26257.04163440  .00000133  00000-0  64098-4 0  9992
2 11289  81.2443 109.7360 0075450  12.5050 347.7971 14.12125944446897

Отслеживайте SL-3 R/B в реальном времени с AllMySat

Download on the App Store